Location: ?????????
(54.7630°N, 39.4991°E)
Time: 08:09:50
(UTC+00:00)

Cosmos 2369 Rocket - Pass Details

Date: 14 April 2026
Orbit: 829 x 850 km, 71.0° (Epoch: 13 May)

Event Time Altitude Azimuth Distance (km) Brightness Sun altitude
Rises 18:42:39 0° 326° (NW) 3,388 7.0 -17.5°
Reaches altitude 10° 18:45:08 10° 330° (NNW) 2,450 5.8 -17.7°
Maximum altitude 18:50:41 61° 51° (NE) 939 2.4 -18.2°
Enters shadow 18:53:19 31° 120° (ESE) 1,425 2.9 -18.4°
